Hourly Weather Bolshoy Karay

Today, 25 July, Sunday

Time Temperature Precipitation Wind Pressure Humidity
00:00 +18°C° 0 mm 2 mps 751 mmHg 64%
01:00 +18°C° 0 mm 2 mps 751 mmHg 67%
02:00 +18°C° 0 mm 2 mps 751 mmHg 69%
03:00 +17°C° 0 mm 2 mps 751 mmHg 72%
04:00 +17°C° 0 mm 2 mps 752 mmHg 71%
05:00 +18°C° 0 mm 2 mps 752 mmHg 70%
06:00 +18°C° 0 mm 2 mps 752 mmHg 70%
07:00 +19°C° 0 mm 2 mps 753 mmHg 64%
08:00 +21°C° 0 mm 2 mps 753 mmHg 59%
09:00 +23°C° 0 mm 2 mps 753 mmHg 53%
10:00 +24°C° 0 mm 2 mps 753 mmHg 49%
11:00 +25°C° 0 mm 2 mps 754 mmHg 44%
12:00 +26°C° 0 mm 2 mps 754 mmHg 39%
13:00 +26°C° 0 mm 2 mps 754 mmHg 41%
14:00 +25°C° 0 mm 1 mps 754 mmHg 44%
15:00 +25°C° 0 mm 1 mps 754 mmHg 46%
16:00 +25°C° 0 mm 1 mps 754 mmHg 47%
17:00 +24°C° 0 mm 1 mps 754 mmHg 48%
18:00 +24°C° 0 mm 2 mps 754 mmHg 49%
19:00 +23°C° 0 mm 2 mps 754 mmHg 50%
20:00 +21°C° 0 mm 2 mps 755 mmHg 51%
21:00 +21°C° 0 mm 2 mps 755 mmHg 52%
22:00 +20°C° 0 mm 2 mps 755 mmHg 54%
23:00 +19°C° 0 mm 2 mps 755 mmHg 56%

Tomorrow, 26 July, Monday

Time Temperature Precipitation Wind Pressure Humidity
00:00 +19°C° 0 mm 2 mps 756 mmHg 58%
01:00 +19°C° 0 mm 2 mps 756 mmHg 58%
02:00 +19°C° 0 mm 1 mps 756 mmHg 59%
03:00 +19°C° 0 mm 1 mps 756 mmHg 59%
04:00 +19°C° 0 mm 1 mps 756 mmHg 59%
05:00 +19°C° 0 mm 1 mps 756 mmHg 59%
06:00 +19°C° 0 mm 1 mps 757 mmHg 58%
07:00 +20°C° 0 mm 1 mps 757 mmHg 57%
08:00 +21°C° 0 mm 1 mps 757 mmHg 55%
09:00 +22°C° 0 mm 1 mps 757 mmHg 53%
10:00 +21°C° 0 mm 2 mps 757 mmHg 51%
11:00 +23°C° 0 mm 2 mps 757 mmHg 49%
12:00 +24°C° 0 mm 2 mps 757 mmHg 46%
13:00 +25°C° 0 mm 2 mps 757 mmHg 43%
14:00 +26°C° 0 mm 2 mps 757 mmHg 39%
15:00 +27°C° 0 mm 2 mps 756 mmHg 36%
16:00 +27°C° 0 mm 1 mps 756 mmHg 36%
17:00 +27°C° 0 mm 1 mps 756 mmHg 37%
18:00 +26°C° 0 mm 1 mps 756 mmHg 38%
19:00 +24°C° 0 mm 1 mps 756 mmHg 42%
20:00 +23°C° 0 mm 1 mps 756 mmHg 46%
21:00 +21°C° 0 mm 1 mps 756 mmHg 50%
22:00 +20°C° 0 mm 1 mps 756 mmHg 53%
23:00 +19°C° 0 mm 1 mps 756 mmHg 56%

Day after tomorrow, 27 July, Tuesday

Time Temperature Precipitation Wind Pressure Humidity
00:00 +18°C° 0 mm 1 mps 756 mmHg 59%
01:00 +18°C° 0 mm 1 mps 756 mmHg 61%
02:00 +18°C° 0 mm 1 mps 756 mmHg 62%
03:00 +16°C° 0 mm 1 mps 756 mmHg 64%
04:00 +18°C° 0 mm 1 mps 756 mmHg 63%
05:00 +19°C° 0 mm 1 mps 756 mmHg 62%
06:00 +17°C° 0 mm 0 mps 756 mmHg 61%
07:00 +21°C° 0 mm 1 mps 756 mmHg 55%
08:00 +23°C° 0 mm 1 mps 756 mmHg 48%
09:00 +25°C° 0 mm 1 mps 756 mmHg 42%
10:00 +27°C° 0 mm 2 mps 756 mmHg 39%
11:00 +28°C° 0 mm 2 mps 756 mmHg 35%
12:00 +29°C° 0 mm 2 mps 755 mmHg 32%
13:00 +29°C° 0 mm 2 mps 755 mmHg 32%
14:00 +29°C° 0 mm 2 mps 755 mmHg 32%
15:00 +29°C° 0 mm 3 mps 754 mmHg 32%
16:00 +28°C° 0 mm 3 mps 754 mmHg 34%
17:00 +28°C° 0 mm 3 mps 754 mmHg 35%
18:00 +28°C° 0 mm 3 mps 754 mmHg 37%
19:00 +26°C° 0 mm 2 mps 754 mmHg 41%
20:00 +24°C° 0 mm 1 mps 754 mmHg 44%
21:00 +22°C° 0 mm 1 mps 754 mmHg 48%
22:00 +22°C° 0 mm 1 mps 754 mmHg 50%
23:00 +21°C° 0 mm 1 mps 754 mmHg 52%

28 July, Wednesday

Time Temperature Precipitation Wind Pressure Humidity
00:00 +20°C° 0 mm 1 mps 754 mmHg 53%
01:00 +20°C° 0 mm 1 mps 754 mmHg 54%
02:00 +20°C° 0 mm 1 mps 754 mmHg 54%
03:00 +20°C° 0 mm 1 mps 754 mmHg 55%
04:00 +20°C° 0 mm 1 mps 754 mmHg 56%
05:00 +19°C° 0 mm 2 mps 754 mmHg 56%
06:00 +20°C° 0 mm 2 mps 754 mmHg 57%
07:00 +23°C° 0 mm 2 mps 754 mmHg 51%
08:00 +25°C° 0 mm 2 mps 753 mmHg 46%
09:00 +27°C° 0 mm 2 mps 753 mmHg 40%
10:00 +28°C° 0 mm 2 mps 753 mmHg 36%
11:00 +30°C° 0 mm 2 mps 753 mmHg 33%
12:00 +31°C° 0 mm 2 mps 752 mmHg 29%
13:00 +31°C° 0 mm 2 mps 752 mmHg 28%
14:00 +31°C° 0 mm 2 mps 752 mmHg 27%
15:00 +32°C° 0 mm 2 mps 751 mmHg 26%
16:00 +31°C° 0 mm 1 mps 751 mmHg 29%
17:00 +30°C° 0 mm 1 mps 751 mmHg 32%
18:00 +29°C° 0 mm 1 mps 750 mmHg 35%
19:00 +28°C° 0 mm 1 mps 750 mmHg 37%
20:00 +27°C° 0 mm 2 mps 750 mmHg 38%
21:00 +26°C° 0 mm 2 mps 750 mmHg 39%
22:00 +25°C° 0 mm 3 mps 749 mmHg 39%
23:00 +25°C° 0 mm 3 mps 749 mmHg 39%

29 July, Thursday

Time Temperature Precipitation Wind Pressure Humidity
00:00 +25°C° 0 mm 3 mps 749 mmHg 39%
01:00 +24°C° 0 mm 3 mps 749 mmHg 46%
02:00 +22°C° 0 mm 3 mps 749 mmHg 53%
03:00 +21°C° 0 mm 3 mps 748 mmHg 60%
04:00 +21°C° 0 mm 3 mps 748 mmHg 58%
05:00 +22°C° 0 mm 3 mps 748 mmHg 56%
06:00 +22°C° 0 mm 3 mps 747 mmHg 54%
07:00 +22°C° 0.1 mm 3 mps 747 mmHg 57%
08:00 +22°C° 0.1 mm 4 mps 747 mmHg 60%
09:00 +23°C° 0.1 mm 5 mps 747 mmHg 62%
10:00 +26°C° 0 mm 5 mps 747 mmHg 56%
11:00 +28°C° 0 mm 6 mps 746 mmHg 50%
12:00 +32°C° 0 mm 7 mps 746 mmHg 45%
13:00 +30°C° 0.1 mm 6 mps 745 mmHg 47%
14:00 +30°C° 0.1 mm 5 mps 745 mmHg 49%
15:00 +29°C° 0.1 mm 4 mps 745 mmHg 51%
16:00 +30°C° 0 mm 4 mps 744 mmHg 49%
17:00 +30°C° 0 mm 3 mps 744 mmHg 48%
18:00 +31°C° 0 mm 2 mps 744 mmHg 46%
19:00 +29°C° 0 mm 2 mps 744 mmHg 49%
20:00 +28°C° 0 mm 3 mps 744 mmHg 51%
21:00 +27°C° 0 mm 3 mps 744 mmHg 54%
22:00 +26°C° 0 mm 2 mps 744 mmHg 55%
23:00 +25°C° 0 mm 2 mps 744 mmHg 55%

30 July, Friday

Time Temperature Precipitation Wind Pressure Humidity
00:00 +25°C° 0 mm 2 mps 744 mmHg 56%
01:00 +24°C° 0 mm 2 mps 744 mmHg 59%
02:00 +23°C° 0 mm 2 mps 744 mmHg 62%
03:00 +22°C° 0 mm 1 mps 744 mmHg 64%
04:00 +23°C° 0 mm 1 mps 744 mmHg 65%
05:00 +23°C° 0 mm 1 mps 744 mmHg 66%
06:00 +23°C° 0 mm 1 mps 744 mmHg 66%
07:00 +23°C° 0.2 mm 1 mps 744 mmHg 72%
08:00 +23°C° 0.2 mm 2 mps 744 mmHg 77%
09:00 +23°C° 0.2 mm 2 mps 745 mmHg 82%
10:00 +24°C° 0.2 mm 2 mps 745 mmHg 77%
11:00 +25°C° 0.2 mm 2 mps 745 mmHg 71%
12:00 +27°C° 0.2 mm 2 mps 745 mmHg 65%
13:00 +27°C° 0.4 mm 2 mps 745 mmHg 66%
14:00 +27°C° 0.4 mm 2 mps 745 mmHg 67%
15:00 +26°C° 0.4 mm 2 mps 745 mmHg 68%
16:00 +27°C° 0 mm 2 mps 745 mmHg 63%
17:00 +28°C° 0 mm 2 mps 745 mmHg 59%
18:00 +28°C° 0 mm 2 mps 745 mmHg 55%
19:00 +27°C° 0 mm 2 mps 746 mmHg 61%
20:00 +25°C° 0 mm 2 mps 746 mmHg 68%
21:00 +23°C° 0 mm 1 mps 746 mmHg 74%
22:00 +23°C° 0.1 mm 1 mps 747 mmHg 77%
23:00 +22°C° 0.1 mm 1 mps 747 mmHg 79%
Show more

We Need Your Consent

Meteoprog and our Service Providers may store and access personal data such as cookies, device identifiers or other similar technologies on your device and process such data to personalise content and ads, as well as provide social media features and to analyse the traffic.

  • Store and/or access information on your device

    Cookies, device identifiers or other information can be stored or accessed on your device for the purposes indicated above.

  • Personalised ads and content, ad and content measurement, audience insights, and products development

    Ads and content can be personalised based on a profile. More data can be added to better personalise ads and content. Ad and content performance can be measured. Insights about the audience who saw the ads and content can be derived. Such data can be used to develop or improve user’s experience, systems and software.

By clicking ‘I Agree’ you will allow the use of indicated cookies, device identifiers, web beacons or other similar technologies. Your settings can be changed in the browser on your device.

For certain purposes, legitimate interests may be relied on, rather than consent. You can read more about this in our Privacy and Cookie Policy.